COSMOS 1802

Satellite information

Favourite Embed

Satellite Type and Status

PAYLOADIN ORBIT

Key statistics

Satellite COSMOS 1802 at a glance.

Uptime

14215

Days in orbit

Revolutions

≈ 13.7

Per day

Orbit

LEO

Low Earth Orbit

Inclination

82.9

Latest

Satellite identification and parameters

Extended collection of information and parameters for COSMOS 1802.

Object identification

Identified? True

Debris? False

Object name: COSMOS 1802

International designator: 1986-093A

Object number (NORAD): 17159

Object ID (CCSDS): 17159

Country: COMMONWEALTH OF INDEPENDENT STATES (CIS)

Current information (Y/N): Y

RCS size: LARGE

Orbital parameters

Period: 104.884 minutes

Inclination: 82.9324 deg

SMA: 7367.136 km

Apoapsis: 1021.1 km

Periapsis: 956.901 km

RAAN: 355.3054 deg

Eccentricy: 0.00435711

Argument of periapsis: 60.0064 deg

Mean anomaly: 311.6774 deg

Mean motion: 13.72950165 rev/day

Mean motion (dot): 0.00000083 rev/day2

B* drag term: 0.000073307455 1/REarth

Two-line elements (TLE)

Creation date: Oct. 25, 2025, 3:11 a.m.

Reference frame: TEME

Reference center: EARTH

Epoch: Oct. 24, 2025, 10:48 a.m. UTC

TLE line 0: 0 COSMOS 1802

TLE line 1: 1 17159U 86093A 25297.45067447 .00000083 00000-0 73307-4 0 9996

TLE line 2: 2 17159 82.9324 355.3054 0043571 60.0064 311.6774 13.72950165949284

Live tracking on map

Real-time ground track for satellite COSMOS 1802.

In-orbit conjunctions

A list of the most updated potential collisions computed for object COSMOS 1802.

Target Orbit TCA Probability of collision Miss distance Type
COSMOS 2251 DEB LEO 2025-08-09 13:44:15 0.0005461015 106.0 (m) DEBRIS
FENGYUN 1C DEB SSO 2025-01-25 10:52:12 0.00264186 46.0 (m) DEBRIS
THORAD AGENA D DEB SSO 2024-10-07 15:44:38 0.0001246153 301.0 (m) DEBRIS
THORAD AGENA D DEB SSO 2024-09-05 02:51:56 0.000130935 255.0 (m) DEBRIS
COSMOS 1275 DEB LEO 2024-06-14 14:00:57 0.04619594 10.0 (m) DEBRIS

Associated space launch

Navigation satellite providing location information for the Tsiklon-B navigation system

COSMOS 1802 was lifted into orbit during the mission ‘Kosmos-3M | Parus 56’, on board a Kosmos-3M space rocket.

The launch took place on Nov. 24, 1986, 9:43 p.m. from 132/2.

For more information about the launch, click the button.

Launch to space Kosmos-3M | Parus 56
Kosmos-3M | Parus 56

Agency: N/A

Status: Launch Successful

Launch date: Nov. 24, 1986, 9:43 p.m. UTC

Rocket: Kosmos-3M

Launch pad: 132/2

Location: Plesetsk Cosmodrome, Russian Federation

...

Latest news about this satellite

There are no fresh news available about this satellite. Check back as we update our databases every day.


Newsletter sign-up

Weekly statistics, charts and insights to help you stay on top of the space industry.